This is the latest recevied weather packets stored in our database for station/object SQ8AQL-16. If no packets are shown the sender has not sent any weather packets the latest 10 day(s).
| Time | Temp. | Humidity | Pressure | Rain* | Wind** | Luminosity | Snow |
|---|---|---|---|---|---|---|---|
| 1776993755 | 7.22° C | 57% | 1016.3 hPa | - | - | - | - |
| 1776992854 | 7.22° C | 57% | 1016.3 hPa | - | - | - | - |
| 1776991953 | 6.67° C | 57% | 1016.3 hPa | - | - | - | - |
| 1776991052 | 7.22° C | 56% | 1016.3 hPa | - | - | - | - |
| 1776990150 | 7.78° C | 55% | 1016.3 hPa | - | - | - | - |
| 1776989249 | 7.78° C | 54% | 1016.2 hPa | - | - | - | - |
| 1776988348 | 8.33° C | 52% | 1016.2 hPa | - | - | - | - |
| 1776987447 | 8.33° C | 52% | 1016.2 hPa | - | - | - | - |
| 1776986546 | 8.89° C | 52% | 1016.2 hPa | - | - | - | - |
| 1776985645 | 8.89° C | 53% | 1016.2 hPa | - | - | - | - |
| 1776984744 | 9.44° C | 53% | 1016.2 hPa | - | - | - | - |
| 1776983843 | 10° C | 52% | 1016 hPa | - | - | - | - |
| 1776982941 | 10° C | 50% | 1016.2 hPa | - | - | - | - |
| 1776982041 | 10.56° C | 50% | 1016.1 hPa | - | - | - | - |
| 1776981139 | 10.56° C | 50% | 1016.1 hPa | - | - | - | - |
| 1776980239 | 10° C | 50% | 1016 hPa | - | - | - | - |
| 1776979337 | 10.56° C | 51% | 1015.8 hPa | - | - | - | - |
| 1776978437 | 10.56° C | 51% | 1015.8 hPa | - | - | - | - |
| 1776977536 | 11.11° C | 50% | 1015.9 hPa | - | - | - | - |
| 1776976635 | 11.67° C | 49% | 1015.8 hPa | - | - | - | - |
| 1776975734 | 11.11° C | 50% | 1015.8 hPa | - | - | - | - |
| 1776974833 | 11.67° C | 51% | 1015.6 hPa | - | - | - | - |
| 1776973933 | 11.67° C | 50% | 1015.4 hPa | - | - | - | - |
| 1776973031 | 11.67° C | 49% | 1015.3 hPa | - | - | - | - |
| 1776972130 | 11.67° C | 49% | 1015.1 hPa | - | - | - | - |
* Rain since midnight (hover to see other rain measurements)
** Current wind speed in m/s (hover to see current wind gust speed)